DW3725 Oslo NO current weather conditions

sailwx.info

Wind from 152

Air temperature 5.6° C
Dewpoint 5.0° C

Last reported at 2019-Aug-22 04:00 UTC.
Time now 2019-Aug-22 04:42 UTC

Location: N 60°15' E 011°13'.
View on Google Maps.

See reports from other nearby stations

  
Tides and Currents Weather Stations Pressure Air Temp Water Temp Dewpoint Dewpoint Depression Visibility Wind Speed Wind Dir Waves Ship Positions
date/time (UTC)wind fromknots sea level pressurealtimeterstation pressurevisibilityair tempwater tempwave heightnotes
2019-Aug-22 04:00 152 5.6
2019-Aug-22 03:45 152 5.6
2019-Aug-22 03:40 152 5.6
2019-Aug-22 03:35 152 5.6
2019-Aug-22 03:30 152 5.6
2019-Aug-22 03:20 152 5.6
2019-Aug-22 03:00 152 5.6
2019-Aug-22 02:55 152 5.6
2019-Aug-22 02:45 152 6.1
2019-Aug-22 02:40 152 6.1
2019-Aug-22 02:35 152 6.1
2019-Aug-22 02:30 152 6.1
2019-Aug-22 02:20 152 6.1
2019-Aug-22 02:10 152 6.1
2019-Aug-22 02:05 152 6.1
2019-Aug-22 02:00 152 6.1
2019-Aug-22 01:55 152 6.7
2019-Aug-22 01:50 152 6.7
2019-Aug-22 01:40 152 6.7
2019-Aug-22 01:35 152 6.7
2019-Aug-22 01:25 152 6.7
2019-Aug-22 01:20 152 6.7
2019-Aug-22 01:10 152 7.2
2019-Aug-22 01:05 152 7.2
2019-Aug-22 01:00 152 7.2
2019-Aug-22 00:55 152 7.2
2019-Aug-22 00:45 152 7.2
2019-Aug-22 00:40 152 7.8
2019-Aug-22 00:35 152 7.8
2019-Aug-22 00:20 152 7.8
2019-Aug-22 00:15 152 7.8
2019-Aug-22 00:10 152 7.8
2019-Aug-21 23:55 152 7.8
2019-Aug-21 23:50 152 8.3
2019-Aug-21 23:45 152 8.3
2019-Aug-21 23:40 152 8.3
2019-Aug-21 23:35 152 8.3
2019-Aug-21 23:30 152 8.9
2019-Aug-21 23:25 152 8.9
2019-Aug-21 23:20 152 8.9
2019-Aug-21 23:15 152 8.9
2019-Aug-21 23:10 152 8.9
2019-Aug-21 23:05 152 8.9
2019-Aug-21 23:00 152 9.4
2019-Aug-21 22:45 152 9.4
2019-Aug-21 22:40 152 10.0
2019-Aug-21 22:30 152 10.0
2019-Aug-21 22:25 153 10.0
2019-Aug-21 22:20 153 10.6
2019-Aug-21 22:15 153 10.6
2019-Aug-21 22:10 153 10.6
2019-Aug-21 22:05 153 11.1
2019-Aug-21 21:55 153 11.1
2019-Aug-21 21:50 153 11.1
2019-Aug-21 21:45 163 11.1
2019-Aug-21 21:40 125 11.1
2019-Aug-21 21:35 193 11.1
2019-Aug-21 21:30 203 0 gusting 2 11.1
2019-Aug-21 21:25 208 11.1
2019-Aug-21 21:10 217 11.7
2019-Aug-21 21:05 142 11.7
2019-Aug-21 21:00 140 11.7
2019-Aug-21 20:55 140 11.7
2019-Aug-21 20:45 162 0 gusting 2 11.7
2019-Aug-21 20:40 161 0 gusting 1 11.7
2019-Aug-21 20:35 162 0 gusting 2 11.7
2019-Aug-21 20:30 157 12.2
2019-Aug-21 20:25 157 12.2
2019-Aug-21 20:20 157 12.2
2019-Aug-21 20:15 157 0 gusting 2 12.2
2019-Aug-21 20:10 168 0 gusting 2 12.2
2019-Aug-21 20:05 163 0 gusting 2 12.2
2019-Aug-21 20:00 148 0 gusting 1 12.8
2019-Aug-21 19:40 163 0 gusting 2 12.8
2019-Aug-21 19:35 142 0 gusting 2 12.8
2019-Aug-21 19:30 168 0 gusting 2 12.8
2019-Aug-21 19:25 177 0 gusting 2 13.3
2019-Aug-21 19:20 167 0 gusting 2 13.3
2019-Aug-21 19:05 162 0 gusting 2 13.9
2019-Aug-21 18:50 163 14.4
2019-Aug-21 18:40 196 2 gusting 6 15.0
2019-Aug-21 18:35 186 1 gusting 4 15.0
2019-Aug-21 18:25 180 0 gusting 2 15.6
2019-Aug-21 18:20 173 0 gusting 4 16.1
2019-Aug-21 17:55 198 1 gusting 4 17.8
2019-Aug-21 17:50 232 1 gusting 6 17.8
2019-Aug-21 17:35 203 2 gusting 8 18.3
2019-Aug-21 17:30 226 1 gusting 6 18.3
2019-Aug-21 17:25 234 2 gusting 5 18.9
2019-Aug-21 17:20 209 1 gusting 6 18.9
2019-Aug-21 17:15 203 2 gusting 8 18.9
2019-Aug-21 17:10 205 4 gusting 7 19.4
2019-Aug-21 17:05 218 2 gusting 6 19.4
2019-Aug-21 17:00 226 1 gusting 6 19.4
2019-Aug-21 16:55 162 0 gusting 4 19.4
2019-Aug-21 16:50 201 2 gusting 6 19.4
2019-Aug-21 16:45 224 0 gusting 2 19.4
2019-Aug-21 16:35 200 1 gusting 7 19.4
2019-Aug-21 16:20 256 1 gusting 4 20.0
2019-Aug-21 16:15 235 2 gusting 6 20.0
2019-Aug-21 16:05 224 3 gusting 7 20.6
2019-Aug-21 16:00 246 3 gusting 10 20.6
2019-Aug-21 15:55 254 3 gusting 6 20.6
2019-Aug-21 15:50 234 2 gusting 7 20.6
2019-Aug-21 15:45 236 0 gusting 2 20.6
2019-Aug-21 15:40 242 2 gusting 6 20.6
2019-Aug-21 15:35 196 2 gusting 6 20.6
2019-Aug-21 15:30 249 1 gusting 5 20.0
2019-Aug-21 15:25 257 0 gusting 4 20.0
2019-Aug-21 15:20 211 4 gusting 8 20.0
2019-Aug-21 15:15 227 0 gusting 5 20.0
2019-Aug-21 15:10 192 1 gusting 5 20.0
2019-Aug-21 15:05 240 2 gusting 5 20.0
2019-Aug-21 14:55 180 0 gusting 2 20.0
2019-Aug-21 14:50 203 0 gusting 4 20.0
2019-Aug-21 14:45 265 1 gusting 5 20.0
2019-Aug-21 14:40 213 0 gusting 6 20.0
2019-Aug-21 14:35 202 2 gusting 6 20.0
2019-Aug-21 14:30 273 1 gusting 4 20.0
2019-Aug-21 14:25 244 5 gusting 10 20.0
2019-Aug-21 14:10 211 1 gusting 5 20.0
2019-Aug-21 13:55 236 3 gusting 7 20.0
2019-Aug-21 13:50 221 3 gusting 10 20.0
2019-Aug-21 13:45 260 4 gusting 10 20.0
2019-Aug-21 13:40 221 1 gusting 6 20.0
2019-Aug-21 13:35 204 3 gusting 10 20.0
2019-Aug-21 13:25 276 4 gusting 6 20.0
2019-Aug-21 13:20 197 3 gusting 8 20.0
2019-Aug-21 13:10 266 2 gusting 7 20.0
2019-Aug-21 13:05 241 3 gusting 7 20.0
2019-Aug-21 13:00 229 5 gusting 8 20.0
2019-Aug-21 12:55 260 1 gusting 8 20.0
2019-Aug-21 12:50 257 1 gusting 6 20.0
2019-Aug-21 12:45 287 1 gusting 5 20.0
2019-Aug-21 12:40 308 1 gusting 5 20.0
2019-Aug-21 12:35 202 0 gusting 2 19.4
2019-Aug-21 12:30 270 2 gusting 6 19.4
2019-Aug-21 12:25 251 1 gusting 5 19.4
2019-Aug-21 12:20 270 1 gusting 5 19.4
2019-Aug-21 12:15 142 0 gusting 4 19.4
2019-Aug-21 12:05 204 1 gusting 5 19.4
2019-Aug-21 12:00 258 1 gusting 5 19.4
2019-Aug-21 11:50 004 0 gusting 2 18.9
2019-Aug-21 11:45 355 0 gusting 2 18.9
2019-Aug-21 11:35 281 0 gusting 2 18.3
2019-Aug-21 11:30 273 1 gusting 2 18.3
2019-Aug-21 11:25 229 1 gusting 4 18.9
2019-Aug-21 11:20 270 2 gusting 5 18.9
2019-Aug-21 11:15 226 0 gusting 2 18.9
2019-Aug-21 11:10 218 18.3
2019-Aug-21 11:05 218 17.8
2019-Aug-21 10:55 243 1 gusting 2 17.8
2019-Aug-21 10:20 237 1 gusting 5 18.3
2019-Aug-21 10:15 235 1 gusting 2 18.3
2019-Aug-21 10:10 286 1 gusting 2 17.8
2019-Aug-21 10:00 253 2 gusting 6 17.8
2019-Aug-21 09:55 233 2 gusting 5 17.8
2019-Aug-21 09:50 297 1 gusting 4 17.8
2019-Aug-21 09:45 248 17.8
2019-Aug-21 09:40 238 1 gusting 5 17.8
2019-Aug-21 09:35 286 17.8
2019-Aug-21 09:30 006 0 gusting 2 17.2
2019-Aug-21 09:25 349 1 gusting 6 17.2
2019-Aug-21 09:15 280 0 gusting 4 16.7
2019-Aug-21 09:10 312 1 gusting 4 16.7
2019-Aug-21 08:55 293 1 gusting 6 16.1
2019-Aug-21 08:45 307 1 gusting 5 16.1
2019-Aug-21 08:40 337 1 gusting 6 16.1
2019-Aug-21 08:25 248 1 gusting 6 15.6
2019-Aug-21 08:20 264 2 gusting 6 15.6
2019-Aug-21 08:15 278 0 gusting 5 15.6
2019-Aug-21 08:05 15.0
2019-Aug-21 08:00 321 2 gusting 6 15.0
2019-Aug-21 07:55 023 1 gusting 4 14.4
2019-Aug-21 07:50 332 1 gusting 2 14.4
2019-Aug-21 07:45 321 1 gusting 2 14.4
2019-Aug-21 07:40 312 1 gusting 4 13.9
2019-Aug-21 07:30 342 1 gusting 4 13.3
2019-Aug-21 07:25 013 1 gusting 4 13.3
2019-Aug-21 07:20 005 2 gusting 5 13.3
2019-Aug-21 07:15 039 1 gusting 2 13.3
2019-Aug-21 07:05 015 0 gusting 2 12.8
2019-Aug-21 07:00 331 0 gusting 2 12.8
2019-Aug-21 06:45 284 0 gusting 2 12.2
2019-Aug-21 06:35 043 0 gusting 2 11.7
2019-Aug-21 06:20 267 11.7
2019-Aug-21 06:10 267 11.7
2019-Aug-21 06:05 267 11.7
2019-Aug-21 06:00 267 11.1
2019-Aug-21 05:55 267 11.1
2019-Aug-21 05:50 267 11.1
2019-Aug-21 05:45 267 11.1
2019-Aug-21 05:40 267 11.1
2019-Aug-21 05:35 267 11.1
2019-Aug-21 05:30 267 11.1
2019-Aug-21 05:20 267 11.1
2019-Aug-21 05:15 267 11.1
2019-Aug-21 05:10 267 11.1
2019-Aug-21 05:05 267 11.1
2019-Aug-21 05:00 267 11.1
2019-Aug-21 04:55 267 11.1
2019-Aug-21 04:45 267 11.1
2019-Aug-21 04:40 267 11.1
2019-Aug-21 04:35 267 11.1
2019-Aug-21 04:25 267 11.1
2019-Aug-21 04:20 267 11.1
2019-Aug-21 04:15 267 11.1
2019-Aug-21 04:10 267 11.1
2019-Aug-21 04:05 267 11.1
2019-Aug-21 04:00 267 11.1
2019-Aug-21 03:50 267 11.1
2019-Aug-21 03:45 267 11.1
2019-Aug-21 03:40 267 11.7
2019-Aug-21 03:30 267 11.7
2019-Aug-21 03:25 267 11.7
2019-Aug-21 03:15 267 11.7
2019-Aug-21 03:10 267 11.7
2019-Aug-21 03:05 267 11.7
2019-Aug-21 03:00 267 11.7
2019-Aug-21 02:50 267 11.7
2019-Aug-21 02:45 267 11.7
2019-Aug-21 02:35 267 11.7
2019-Aug-21 02:30 267 11.7
2019-Aug-21 02:25 267 11.7
2019-Aug-21 02:20 267 0 gusting 2 11.7
2019-Aug-21 02:10 188 12.2
2019-Aug-21 02:05 188 0 gusting 2 12.2
2019-Aug-21 02:00 188 12.2
2019-Aug-21 01:55 188 12.2
2019-Aug-21 01:45 188 12.2
2019-Aug-21 01:40 188 12.2
2019-Aug-21 01:35 188 12.2
2019-Aug-21 01:30 188 12.2
2019-Aug-21 01:25 188 12.2
2019-Aug-21 01:15 188 12.8
2019-Aug-21 01:10 197 0 gusting 5 12.8
2019-Aug-21 01:05 228 0 gusting 4 12.8
2019-Aug-21 01:00 176 0 gusting 4 12.8
2019-Aug-21 00:55 185 1 gusting 2 12.8
2019-Aug-21 00:50 180 12.8
2019-Aug-21 00:45 190 12.8
2019-Aug-21 00:40 157 12.2
2019-Aug-21 00:35 155 12.2
2019-Aug-21 00:30 133 0 gusting 1 12.2
2019-Aug-21 00:25 130 12.2
2019-Aug-21 00:15 127 12.2
2019-Aug-21 00:05 129 12.2
2019-Aug-21 00:00 129 0 gusting 2 12.2
2019-Aug-20 23:50 161 12.2
2019-Aug-20 23:45 213 0 gusting 2 12.2
2019-Aug-20 23:40 148 1 gusting 4 12.2
2019-Aug-20 23:30 172 1 gusting 4 12.8
2019-Aug-20 23:20 170 1 gusting 2 12.8
2019-Aug-20 23:10 177 1 gusting 2 12.2
2019-Aug-20 22:55 176 0 gusting 2 12.2
2019-Aug-20 22:50 174 0 gusting 2 12.2
2019-Aug-20 22:40 191 0 gusting 2 12.2
2019-Aug-20 22:35 176 12.2
2019-Aug-20 22:30 183 0 gusting 2 12.2
2019-Aug-20 22:25 174 0 gusting 4 12.2
2019-Aug-20 22:20 127 12.2
2019-Aug-20 22:05 168 1 gusting 2 12.2
2019-Aug-20 22:00 133 12.2
2019-Aug-20 21:55 154 12.2
2019-Aug-20 21:50 152 12.2
2019-Aug-20 21:45 236 12.2
2019-Aug-20 21:35 107 12.2
2019-Aug-20 21:30 104 12.2
2019-Aug-20 19:10 202 1 gusting 4 14.4
2019-Aug-20 19:05 175 1 gusting 5 14.4
2019-Aug-20 18:55 191 1 gusting 4 14.4
2019-Aug-20 18:50 213 2 gusting 6 15.0
2019-Aug-20 18:45 203 2 gusting 6 15.0
2019-Aug-20 18:40 192 0 gusting 6 15.0
2019-Aug-20 18:35 196 2 gusting 6 15.0
2019-Aug-20 18:30 200 2 gusting 5 15.0
2019-Aug-20 18:25 209 2 gusting 6 15.6
2019-Aug-20 18:20 204 4 gusting 7 15.6
2019-Aug-20 18:15 203 3 gusting 7 15.6
2019-Aug-20 18:10 170 1 gusting 6 15.6
2019-Aug-20 18:05 168 3 gusting 6 15.0
2019-Aug-20 17:55 143 0 gusting 2 15.6
2019-Aug-20 17:50 209 0 gusting 2 15.6
2019-Aug-20 17:40 229 16.1
2019-Aug-20 17:35 225 0 gusting 2 16.1
2019-Aug-20 17:30 237 1 gusting 2 16.1
2019-Aug-20 17:25 232 0 gusting 2 16.1
2019-Aug-20 17:15 234 2 gusting 6 16.1
2019-Aug-20 17:10 209 3 gusting 6 16.1
2019-Aug-20 17:05 180 2 gusting 8 16.1
2019-Aug-20 17:00 197 3 gusting 8 16.7
2019-Aug-20 16:55 191 3 gusting 6 16.7
2019-Aug-20 16:50 209 2 gusting 7 17.2
2019-Aug-20 16:45 216 1 gusting 4 17.2
2019-Aug-20 16:35 214 2 gusting 8 17.8
2019-Aug-20 16:30 222 4 gusting 10 17.8
2019-Aug-20 16:20 192 6 gusting 13 18.3
2019-Aug-20 16:15 204 5 gusting 13 18.3
2019-Aug-20 16:00 235 6 gusting 15 17.8
2019-Aug-20 15:55 205 4 gusting 10 17.8
2019-Aug-20 15:45 220 4 gusting 10 18.3
2019-Aug-20 15:40 219 4 gusting 12 18.3
2019-Aug-20 15:35 206 5 gusting 11 18.3
2019-Aug-20 15:30 198 2 gusting 8 18.9
2019-Aug-20 15:20 214 4 gusting 11 18.9
2019-Aug-20 15:10 198 4 gusting 14 18.3
2019-Aug-20 15:05 187 5 gusting 14 17.8
2019-Aug-20 15:00 188 6 gusting 14 17.8
2019-Aug-20 14:55 227 5 gusting 11 18.3
2019-Aug-20 14:50 211 4 gusting 11 18.3
2019-Aug-20 14:35 227 4 gusting 10 18.9
2019-Aug-20 14:25 218 4 gusting 11 18.9
2019-Aug-20 14:20 212 4 gusting 14 18.9
2019-Aug-20 14:15 202 4 gusting 13 18.9
2019-Aug-20 14:10 175 5 gusting 11 18.3
2019-Aug-20 14:00 189 5 gusting 19 18.3
2019-Aug-20 13:55 186 6 gusting 18 18.3
2019-Aug-20 13:50 189 5 gusting 18 18.3
2019-Aug-20 13:45 186 6 gusting 17 18.3
2019-Aug-20 13:30 229 6 gusting 11 18.3
2019-Aug-20 13:20 200 7 gusting 13 18.3
2019-Aug-20 13:15 191 7 gusting 17 18.9
2019-Aug-20 13:10 207 6 gusting 13 18.9
2019-Aug-20 13:00 225 6 gusting 17 18.9
2019-Aug-20 12:55 199 5 gusting 13 18.9
2019-Aug-20 12:45 207 6 gusting 14 18.9
2019-Aug-20 12:40 189 6 gusting 14 18.9
2019-Aug-20 12:30 185 5 gusting 14 18.9
2019-Aug-20 12:25 199 6 gusting 14 18.9
2019-Aug-20 12:20 193 5 gusting 12 19.4
2019-Aug-20 12:10 208 5 gusting 14 18.9
2019-Aug-20 12:05 223 4 gusting 13 18.9
2019-Aug-20 12:00 208 5 gusting 14 18.9
2019-Aug-20 11:55 230 4 gusting 14 18.3
2019-Aug-20 11:50 211 4 gusting 10 18.9
2019-Aug-20 11:45 215 4 gusting 10 18.9
2019-Aug-20 11:40 197 4 gusting 17 18.9
2019-Aug-20 11:35 202 4 gusting 8 18.9
2019-Aug-20 11:30 197 5 gusting 7 19.4
2019-Aug-20 11:25 229 2 gusting 10 18.9
2019-Aug-20 11:20 217 2 gusting 10 18.9
2019-Aug-20 11:10 267 4 gusting 13 18.3
2019-Aug-20 10:40 226 4 gusting 10 17.8
2019-Aug-20 10:35 205 5 gusting 10 17.8
2019-Aug-20 10:30 225 2 gusting 10 17.8
2019-Aug-20 10:25 213 4 gusting 14 17.8
2019-Aug-20 10:20 187 3 gusting 14 17.8
2019-Aug-20 10:15 244 4 gusting 8 17.2
2019-Aug-20 10:05 215 2 gusting 7 17.2
2019-Aug-20 10:00 233 3 gusting 11 17.2
2019-Aug-20 09:55 233 3 gusting 10 16.7
2019-Aug-20 09:50 189 5 gusting 10 16.7
2019-Aug-20 09:40 195 4 gusting 7 16.7
2019-Aug-20 09:30 229 4 gusting 10 16.7
2019-Aug-20 09:25 219 1 gusting 10 16.1
2019-Aug-20 09:20 245 2 gusting 8 16.1
2019-Aug-20 09:15 224 3 gusting 6 15.6
2019-Aug-20 09:10 178 2 gusting 5 15.0
2019-Aug-20 09:00 190 3 gusting 8 15.0
2019-Aug-20 08:55 213 1 gusting 6 15.0
2019-Aug-20 08:45 211 2 gusting 6 15.0
2019-Aug-20 08:40 216 2 gusting 7 15.0
2019-Aug-20 08:35 226 4 gusting 10 14.4
2019-Aug-20 08:30 185 1 gusting 6 14.4
2019-Aug-20 08:20 176 1 gusting 4 14.4
2019-Aug-20 08:05 190 0 gusting 5 13.9
2019-Aug-20 08:00 187 2 gusting 6 13.9
2019-Aug-20 07:55 185 0 gusting 6 13.9
2019-Aug-20 07:50 171 0 gusting 2 13.3
2019-Aug-20 07:45 253 3 gusting 5 13.3
2019-Aug-20 07:40 258 13.3
2019-Aug-20 07:35 236 1 gusting 5 12.8
2019-Aug-20 07:30 183 1 gusting 5 12.8
2019-Aug-20 07:25 206 1 gusting 4 12.8
2019-Aug-20 07:20 182 1 gusting 2 12.2
2019-Aug-20 07:15 201 0 gusting 4 12.2
2019-Aug-20 07:10 189 1 gusting 5 12.2
2019-Aug-20 07:05 188 2 gusting 6 12.2
2019-Aug-20 07:00 231 2 gusting 6 12.2
2019-Aug-20 06:55 214 0 gusting 2 12.2
2019-Aug-20 06:50 214 0 gusting 6 12.2
2019-Aug-20 06:40 217 2 gusting 6 12.2
2019-Aug-20 06:35 180 1 gusting 5 12.2
2019-Aug-20 06:25 185 0 gusting 4 11.7
2019-Aug-20 06:20 208 11.7
2019-Aug-20 06:15 192 0 gusting 2 11.7
2019-Aug-20 06:10 160 0 gusting 2 11.7
2019-Aug-20 06:05 192 1 gusting 2 11.7
2019-Aug-20 06:00 170 0 gusting 4 11.7
2019-Aug-20 05:50 180 1 gusting 6 11.1
2019-Aug-20 05:45 211 1 gusting 6 11.1
2019-Aug-20 05:40 206 0 gusting 4 11.1
2019-Aug-20 05:35 192 1 gusting 2 11.1
2019-Aug-20 05:30 210 0 gusting 2 11.1
2019-Aug-20 05:20 211 11.1
2019-Aug-20 05:15 156 0 gusting 2 11.1
2019-Aug-20 05:05 175 10.6
2019-Aug-20 05:00 200 1 gusting 4 10.6
2019-Aug-20 04:55 189 10.6
2019-Aug-20 04:45 183 10.6
2019-Aug-20 04:35 184 10.6
2019-Aug-20 04:25 180 0 gusting 1 10.6
2019-Aug-20 04:15 147 10.6
2019-Aug-20 04:10 146 0 gusting 2 10.6
2019-Aug-20 04:05 169 0 gusting 2 10.6
2019-Aug-20 04:00 191 10.6